Regional Weather Roundup
Issued by NWS

Home | Current Version | Previous Version | Text Only | Print | Product List | Glossary On
Versions: 1 2 3 4 5 6 7 8 9 10 11 12 13 14 15 16 17 18 19 20 21 22 23 24 25 26 27 28 29 30 31 32 33 34 35 36 37 38 39 40 41 42 43 44 45 46 47 48 49 50
000
ASUS44 KOUN 270210
RWROK

WEATHER ROUNDUP FOR OKLAHOMA
NATIONAL WEATHER SERVICE NORMAN OK
900 PM CDT THU APR 26 2018

NOTE: "FAIR" INDICATES FEW OR NO CLOUDS BELOW 12,000 FEET WITH NO
      SIGNIFICANT WEATHER AND/OR OBSTRUCTIONS TO VISIBILITY.

OKZ001>007-009>012-014-015-017-270300-
NORTHWEST OKLAHOMA AND THE PANHANDLE

CITY           SKY/WX    TMP DP  RH WIND       PRES   REMARKS
GAGE           CLOUDY    54  51  90 W6        30.09R
GUYMON         CLEAR     54  37  52 N9        30.15R
ENID/WOODRING  PTCLDY    57  46  67 CALM      30.02R
$$

OKZ016-021>023-033>039-044-045-270300-
SOUTHWEST OKLAHOMA

CITY           SKY/WX    TMP DP  RH WIND       PRES   REMARKS
LAWTON/REGL    CLOUDY    63  51  65 NE7       30.00R
FREDERICK      CLOUDY    65  45  48 E14       29.96R
CLINTON        LGT RAIN  53  50  89 NW20      30.11R
HOBART         TSTM      58  53  84 N22G29    30.09R
ALTUS AFB      TSTM      61  50  67 N16       30.05R
$$

OKZ018>020-024>031-270300-
CENTRAL OKLAHOMA

CITY           SKY/WX    TMP DP  RH WIND       PRES   REMARKS
OKLAHOMA CITY  MOCLDY    62  44  51 N7        30.01R
OKC/WILEY POST CLOUDY    61  47  59 N9        30.02R
OKC/TINKER AFB PTCLDY    61  45  55 N8        30.01R
STILLWATER     PTCLDY    60  45  57 NW6       30.01R
GUTHRIE        PTCLDY    60  46  59 CALM      30.02R
$$

OKZ008-013-054>072-270300-
NORTHEAST OKLAHOMA

CITY           SKY/WX    TMP DP  RH WIND       PRES   REMARKS
TULSA          MOCLDY    60  47  61 SE6       30.00R
TULSA/JONES    CLOUDY    57  49  74 CALM      30.01R
PONCA CITY     MOCLDY    62  45  53 CALM      30.01R
BARTLESVILLE   MOCLDY    56  48  74 CALM      30.01R
MUSKOGEE       MOCLDY    58  50  75 N3        30.03R
$$

OKZ032-040>043-046>053-073>077-270300-
SOUTH CENTRAL/SOUTHEAST OKLAHOMA

CITY           SKY/WX    TMP DP  RH WIND       PRES   REMARKS
ARDMORE/DWNTWN PTCLDY    61  46  59 NE3       29.97R
MCALESTER      CLOUDY    58  49  72 NE3       30.01R
$$





USA.gov is the U.S. government's official web portal to all federal, state and local government web resources and services.